,,,PA_Meas_PMT16A,,PR_Meas_QMR101_102,,RH_Meas_QMH101,,SR_Meas_QMS101,,TA_Meas_QMH101,,GenWind,,GenWind,
date,time,status,PA,status,PR,status,RH,status,SR,status,TA,status,DirAvg,status,SpdAvg,
2012-04-16, 00:00:04,VALID,1004.02,VALID,0,VALID,86.5496,VALID,0,VALID,26.4687,VALID,22,VALID,0.834766,
2012-04-16, 00:01:04,VALID,1003.98,VALID,0,VALID,86.0233,VALID,0,VALID,26.5486,VALID,12,VALID,1.67109,
2012-04-16, 00:02:04,VALID,1004.02,VALID,0,VALID,85.7486,VALID,0,VALID,26.605,VALID,27,VALID,1.15,
2012-04-16, 00:03:04,VALID,1004.03,VALID,0,VALID,85.6189,VALID,0,VALID,26.644,VALID,23,VALID,1.18359,
2012-04-16, 00:04:04,VALID,1004.02,VALID,0,VALID,85.6113,VALID,0,VALID,26.685,VALID,49,VALID,0.513281,
2012-04-16, 00:05:04,VALID,1004.04,VALID,0,VALID,85.741,VALID,0,VALID,26.644,VALID,31,VALID,0.273047,
2012-04-16, 00:06:04,VALID,1004.03,VALID,0,VALID,85.7486,VALID,0,VALID,26.605,VALID,28,VALID,0.549219,
2012-04-16, 00:07:04,VALID,1004.01,VALID,0,VALID,86.0385,VALID,0,VALID,26.5466,VALID,17,VALID,0.853516,
2012-04-16, 00:08:04,VALID,1004.01,VALID,0,VALID,86.3284,VALID,0,VALID,26.5076,VALID,25,VALID,0.461719,
2012-04-16, 00:09:04,VALID,1003.97,VALID,0,VALID,86.3971,VALID,0.0815089,VALID,26.4667,VALID,28,VALID,0.563672,
2012-04-16, 00:10:04,VALID,1003.96,VALID,0,VALID,86.2521,VALID,0,VALID,26.4277,VALID,6,VALID,1.65391,
2012-04-16, 00:11:04,VALID,1003.94,VALID,0,VALID,85.9012,VALID,0.0815089,VALID,26.5076,VALID,23,VALID,1.81875,
2012-04-16, 00:12:04,VALID,1003.91,VALID,0,VALID,85.8402,VALID,0.0815089,VALID,26.5641,VALID,17,VALID,0.857031,
2012-04-16, 00:13:04,VALID,1003.87,VALID,0,VALID,85.5426,VALID,0.0815089,VALID,26.5835,VALID,25,VALID,0.958984,
2012-04-16, 00:14:04,VALID,1003.84,VALID,0,VALID,85.207,VALID,0,VALID,26.642,VALID,20,VALID,0.932031,
2012-04-16, 00:15:04,VALID,1003.78,VALID,0,VALID,85.1154,VALID,0,VALID,26.6614,VALID,12,VALID,0.724609,
2012-04-16, 00:16:04,VALID,1003.77,VALID,0,VALID,85.0468,VALID,0.0815089,VALID,26.6614,VALID,25,VALID,0.626562,
2012-04-16, 00:17:04,VALID,1003.74,VALID,0,VALID,84.9247,VALID,0.0815089,VALID,26.642,VALID,3,VALID,0.776953,
2012-04-16, 00:18:04,VALID,1003.69,VALID,0,VALID,85.268,VALID,0.0815089,VALID,26.6635,VALID,23,VALID,0.491016,
2012-04-16, 00:19:04,VALID,1003.67,VALID,0,VALID,85.2985,VALID,0.0815089,VALID,26.6225,VALID,13,VALID,0.719922,
2012-04-16, 00:20:04,VALID,1003.63,VALID,0,VALID,85.4587,VALID,0.0815089,VALID,26.605,VALID,10,VALID,0.312891,
2012-04-16, 00:21:04,VALID,1003.6,VALID,0,VALID,85.5274,VALID,0.0815089,VALID,26.5641,VALID,52,VALID,0.674609,
2012-04-16, 00:22:04,VALID,1003.58,VALID,0,VALID,85.535,VALID,0,VALID,26.5641,VALID,3,VALID,0.553906,
2012-04-16, 00:23:04,VALID,1003.55,VALID,0,VALID,85.4816,VALID,0.0815089,VALID,26.5835,VALID,14,VALID,0.379297,
2012-04-16, 00:24:04,VALID,1003.53,VALID,0,VALID,85.4892,VALID,0,VALID,26.5466,VALID,20,VALID,0.422656,
2012-04-16, 00:25:04,VALID,1003.5,VALID,0,VALID,85.68,VALID,0,VALID,26.5466,VALID,16,VALID,0.676562,
2012-04-16, 00:26:04,VALID,1003.48,VALID,0,VALID,85.6723,VALID,0,VALID,26.5076,VALID,20,VALID,0.4375,
2012-04-16, 00:27:04,VALID,1003.5,VALID,0,VALID,85.7105,VALID,0,VALID,26.5076,VALID,23,VALID,0.728906,
2012-04-16, 00:28:04,VALID,1003.44,VALID,0,VALID,85.802,VALID,0,VALID,26.4881,VALID,23,VALID,1.36758,
2012-04-16, 00:29:04,VALID,1003.42,VALID,0,VALID,85.6266,VALID,0,VALID,26.5466,VALID,10,VALID,0.844141,
2012-04-16, 00:30:04,VALID,1003.39,VALID,0,VALID,85.7944,VALID,0,VALID,26.5466,VALID,9,VALID,0.817187,
2012-04-16, 00:31:04,VALID,1003.36,VALID,0,VALID,85.6876,VALID,0,VALID,26.5271,VALID,9,VALID,1.33633,
2012-04-16, 00:32:04,VALID,1003.33,VALID,0,VALID,85.535,VALID,0,VALID,26.5661,VALID,17,VALID,0.966016,
2012-04-16, 00:33:04,VALID,1003.34,VALID,0,VALID,85.6723,VALID,0,VALID,26.605,VALID,25,VALID,0.548828,
2012-04-16, 00:34:04,VALID,1003.33,VALID,0,VALID,85.6266,VALID,0,VALID,26.5876,VALID,25,VALID,0.45625,
2012-04-16, 00:35:04,VALID,1003.31,VALID,0,VALID,85.4587,VALID,0,VALID,26.5661,VALID,10,VALID,1.64844,
2012-04-16, 00:36:04,VALID,1003.34,VALID,0,VALID,85.3367,VALID,0,VALID,26.646,VALID,18,VALID,1.08398,
2012-04-16, 00:37:04,VALID,1003.35,VALID,0,VALID,85.1078,VALID,0,VALID,26.6635,VALID,11,VALID,0.528516,
2012-04-16, 00:38:04,VALID,1003.35,VALID,0,VALID,84.8789,VALID,0,VALID,26.683,VALID,38,VALID,0.890234,
2012-04-16, 00:39:04,VALID,1003.35,VALID,0,VALID,84.8179,VALID,0,VALID,26.7024,VALID,28,VALID,0.425,
2012-04-16, 00:40:04,VALID,1003.36,VALID,0,VALID,84.8332,VALID,0,VALID,26.7219,VALID,28,VALID,0.398438,
2012-04-16, 00:41:04,VALID,1003.39,VALID,0,VALID,84.8026,VALID,0,VALID,26.7024,VALID,29,VALID,0.325,
2012-04-16, 00:42:04,VALID,1003.35,VALID,0,VALID,84.9705,VALID,0,VALID,26.7045,VALID,97,VALID,0.464844,
2012-04-16, 00:43:04,VALID,1003.34,VALID,0,VALID,85.1536,VALID,0,VALID,26.603,VALID,98,VALID,0.774609,
2012-04-16, 00:44:04,VALID,1003.35,VALID,0,VALID,85.5198,VALID,0,VALID,26.5466,VALID,87,VALID,0.467578,
2012-04-16, 00:45:04,VALID,1003.31,VALID,0,VALID,85.6723,VALID,0,VALID,26.5271,VALID,87,VALID,0.286719,
2012-04-16, 00:46:04,VALID,1003.32,VALID,0,VALID,85.7868,VALID,0,VALID,26.4687,VALID,87,VALID,0.0726563,
2012-04-16, 00:47:04,VALID,1003.34,VALID,0,VALID,85.8707,VALID,0,VALID,26.3907,VALID,87,VALID,0.430469,
2012-04-16, 00:48:04,VALID,1003.33,VALID,0,VALID,86.4428,VALID,0,VALID,26.2933,VALID,59,VALID,0.416016,
2012-04-16, 00:49:04,VALID,1003.34,VALID,0,VALID,86.9998,VALID,0,VALID,26.2564,VALID,41,VALID,0.704687,
2012-04-16, 00:50:04,VALID,1003.34,VALID,0,VALID,87.2286,VALID,0,VALID,26.2154,VALID,48,VALID,0.465625,
2012-04-16, 00:51:04,VALID,1003.32,VALID,0,VALID,87.2668,VALID,0,VALID,26.1959,VALID,48,VALID,0.292578,
2012-04-16, 00:52:04,VALID,1003.33,VALID,0,VALID,87.4499,VALID,0,VALID,26.1765,VALID,53,VALID,0.228906,
2012-04-16, 00:53:04,VALID,1003.34,VALID,0,VALID,87.6024,VALID,0,VALID,26.1765,VALID,54,VALID,0.343359,
2012-04-16, 00:54:04,VALID,1003.34,VALID,0,VALID,87.6635,VALID,0,VALID,26.159,VALID,33,VALID,0.498047,
2012-04-16, 00:55:04,VALID,1003.34,VALID,0,VALID,87.694,VALID,0,VALID,26.0966,VALID,34,VALID,0.689453,
2012-04-16, 00:56:04,VALID,1003.33,VALID,0,VALID,87.8847,VALID,0,VALID,26.0985,VALID,31,VALID,0.627344,
2012-04-16, 00:57:04,VALID,1003.33,VALID,0,VALID,88.0983,VALID,0,VALID,26.0596,VALID,29,VALID,0.535156,
2012-04-16, 00:58:04,VALID,1003.29,VALID,0,VALID,88.1899,VALID,0,VALID,26.0596,VALID,25,VALID,0.462109,
2012-04-16, 00:59:04,VALID,1003.27,VALID,0,VALID,87.961,VALID,0,VALID,26.0985,VALID,10,VALID,1.3332,
2012-04-16, 01:00:04,VALID,1003.25,VALID,0,VALID,87.6787,VALID,0,VALID,26.157,VALID,34,VALID,1.01406,
2012-04-16, 01:01:04,VALID,1003.21,VALID,0,VALID,87.2057,VALID,0,VALID,26.1959,VALID,16,VALID,1.87031,
2012-04-16, 01:02:04,VALID,1003.18,VALID,0,VALID,86.7633,VALID,0,VALID,26.2544,VALID,19,VALID,1.33828,
2012-04-16, 01:03:04,VALID,1003.17,VALID,0,VALID,86.6793,VALID,0,VALID,26.3323,VALID,14,VALID,0.835156,
2012-04-16, 01:04:04,VALID,1003.12,VALID,0,VALID,86.3666,VALID,0,VALID,26.3323,VALID,13,VALID,1.24531,
2012-04-16, 01:05:04,VALID,1003.15,VALID,0,VALID,86.1301,VALID,0,VALID,26.3518,VALID,7,VALID,0.544141,
2012-04-16, 01:06:04,VALID,1003.09,VALID,0,VALID,86.0995,VALID,0,VALID,26.3323,VALID,18,VALID,0.661328,
2012-04-16, 01:07:04,VALID,1003.11,VALID,0,VALID,86.0156,VALID,0,VALID,26.3538,VALID,15,VALID,0.561719,
2012-04-16, 01:08:04,VALID,1003.13,VALID,0,VALID,84.5585,VALID,0,VALID,26.2933,VALID,14,VALID,1.08242,
2012-04-16, 01:09:04,VALID,1003.1,VALID,0,VALID,84.2991,VALID,0,VALID,26.3128,VALID,21,VALID,0.808984,
2012-04-16, 01:10:04,VALID,1003.11,VALID,0,VALID,82.6284,VALID,0,VALID,26.3733,VALID,33,VALID,1.11563,
2012-04-16, 01:11:04,VALID,1003.1,VALID,0,VALID,82.2393,VALID,0,VALID,26.4317,VALID,30,VALID,0.273047,
2012-04-16, 01:12:04,VALID,1003.05,VALID,0,VALID,82.2241,VALID,0,VALID,26.4317,VALID,26,VALID,0.319922,
2012-04-16, 01:13:04,VALID,1003.1,VALID,0,VALID,82.2088,VALID,0,VALID,26.4102,VALID,40,VALID,0.792578,
2012-04-16, 01:14:04,VALID,1003.08,VALID,0,VALID,82.575,VALID,0,VALID,26.4102,VALID,50,VALID,0.500391,
2012-04-16, 01:15:04,VALID,1003.08,VALID,0,VALID,83.0404,VALID,0,VALID,26.3907,VALID,45,VALID,0.262891,
2012-04-16, 01:16:04,VALID,1003.11,VALID,0,VALID,82.9412,VALID,0,VALID,26.3323,VALID,25,VALID,0.430078,
2012-04-16, 01:17:04,VALID,1003.11,VALID,0,VALID,82.7962,VALID,0,VALID,26.3128,VALID,13,VALID,1.08906,
2012-04-16, 01:18:04,VALID,1003.13,VALID,0,VALID,82.4529,VALID,0,VALID,26.3713,VALID,21,VALID,1.11133,
2012-04-16, 01:19:04,VALID,1003.12,VALID,0,VALID,82.1325,VALID,0,VALID,26.3907,VALID,356,VALID,1.35703,
2012-04-16, 01:20:04,VALID,1003.13,VALID,0,VALID,82.2241,VALID,0,VALID,26.4512,VALID,26,VALID,0.626953,
2012-04-16, 01:21:04,VALID,1003.12,VALID,0,VALID,82.3766,VALID,0,VALID,26.4492,VALID,31,VALID,0.348828,
2012-04-16, 01:22:04,VALID,1003.13,VALID,0,VALID,82.3461,VALID,0,VALID,26.4102,VALID,32,VALID,0.613281,
2012-04-16, 01:23:04,VALID,1003.13,VALID,0,VALID,81.7358,VALID,0,VALID,26.4102,VALID,18,VALID,0.761719,
2012-04-16, 01:24:04,VALID,1003.11,VALID,0,VALID,82.0028,VALID,0,VALID,26.4297,VALID,30,VALID,0.182812,
2012-04-16, 01:25:04,VALID,1003.12,VALID,0,VALID,81.9723,VALID,0,VALID,26.4317,VALID,40,VALID,0.557031,
2012-04-16, 01:26:04,VALID,1003.09,VALID,0,VALID,82.102,VALID,0,VALID,26.4102,VALID,58,VALID,0.242578,
2012-04-16, 01:27:04,VALID,1003.1,VALID,0,VALID,81.8503,VALID,0,VALID,26.3927,VALID,65,VALID,0.598437,
2012-04-16, 01:28:04,VALID,1003.09,VALID,0,VALID,82.2393,VALID,0,VALID,26.3713,VALID,80,VALID,0.308203,
2012-04-16, 01:29:04,VALID,1003.08,VALID,0,VALID,82.6437,VALID,0,VALID,26.3518,VALID,62,VALID,0.532812,
2012-04-16, 01:30:04,VALID,1003.07,VALID,0,VALID,83.5057,VALID,0,VALID,26.2953,VALID,37,VALID,0.280859,
2012-04-16, 01:31:04,VALID,1003.07,VALID,0,VALID,83.8414,VALID,0,VALID,26.1959,VALID,37,VALID,0.480469,
2012-04-16, 01:32:04,VALID,1003.02,VALID,0,VALID,84.6653,VALID,0,VALID,26.0985,VALID,37,VALID,0.685547,
2012-04-16, 01:33:04,VALID,1003.02,VALID,0,VALID,85.1536,VALID,0,VALID,26.0596,VALID,32,VALID,0.7375,
2012-04-16, 01:34:04,VALID,1002.99,VALID,0,VALID,85.6189,VALID,0,VALID,26.0791,VALID,26,VALID,1.72539,
2012-04-16, 01:35:04,VALID,1002.97,VALID,0,VALID,85.5503,VALID,0,VALID,26.1375,VALID,16,VALID,1.02227,
2012-04-16, 01:36:04,VALID,1002.95,VALID,0,VALID,85.3367,VALID,0,VALID,26.1765,VALID,24,VALID,1.3082,
2012-04-16, 01:37:04,VALID,1002.93,VALID,0,VALID,85.1536,VALID,0,VALID,26.2154,VALID,27,VALID,1.23359,
2012-04-16, 01:38:04,VALID,1002.93,VALID,0,VALID,85.0696,VALID,0,VALID,26.2544,VALID,12,VALID,1.16367,
2012-04-16, 01:39:04,VALID,1002.91,VALID,0,VALID,85.1154,VALID,0,VALID,26.2719,VALID,29,VALID,1.01289,
2012-04-16, 01:40:04,VALID,1002.88,VALID,0,VALID,85.1841,VALID,0,VALID,26.3128,VALID,8,VALID,0.780469,
2012-04-16, 01:41:04,VALID,1002.9,VALID,0,VALID,85.1765,VALID,0,VALID,26.2913,VALID,28,VALID,0.83125,
2012-04-16, 01:42:04,VALID,1002.88,VALID,0,VALID,85.062,VALID,0.0815089,VALID,26.3108,VALID,37,VALID,0.644922,
2012-04-16, 01:43:04,VALID,1002.85,VALID,0,VALID,85.2222,VALID,0,VALID,26.3108,VALID,25,VALID,0.575391,
2012-04-16, 01:44:04,VALID,1002.85,VALID,0,VALID,85.3519,VALID,0,VALID,26.2719,VALID,39,VALID,0.0851562,
2012-04-16, 01:45:04,VALID,1002.83,VALID,0,VALID,85.3672,VALID,0.0815089,VALID,26.2504,VALID,39,VALID,0.304688,
2012-04-16, 01:46:04,VALID,1002.82,VALID,0,VALID,85.4816,VALID,0,VALID,26.2134,VALID,57,VALID,0.458594,
2012-04-16, 01:47:04,VALID,1002.79,VALID,0,VALID,85.6037,VALID,0,VALID,26.153,VALID,57,VALID,0.483984,
2012-04-16, 01:48:04,VALID,1002.79,VALID,0,VALID,85.7639,VALID,0.0815089,VALID,26.1355,VALID,58,VALID,0.420703,
2012-04-16, 01:49:04,VALID,1002.84,VALID,0,VALID,86.0309,VALID,0,VALID,26.118,VALID,10,VALID,0.423828,
2012-04-16, 01:50:04,VALID,1002.81,VALID,0,VALID,86.1148,VALID,0.0815089,VALID,26.0966,VALID,78,VALID,0.548047,
2012-04-16, 01:51:04,VALID,1002.82,VALID,0,VALID,86.275,VALID,0.0815089,VALID,26.0576,VALID,75,VALID,0.757813,
2012-04-16, 01:52:04,VALID,1002.81,VALID,0,VALID,86.2521,VALID,0,VALID,25.9992,VALID,94,VALID,0.985156,
2012-04-16, 01:53:04,VALID,1002.81,VALID,0,VALID,86.2598,VALID,0.0815089,VALID,25.9583,VALID,85,VALID,1.18047,
2012-04-16, 01:54:04,VALID,1002.82,VALID,0,VALID,86.3208,VALID,0,VALID,25.9642,VALID,77,VALID,0.928906,
2012-04-16, 01:55:04,VALID,1002.79,VALID,0,VALID,86.5344,VALID,0,VALID,25.9038,VALID,74,VALID,0.496094,
2012-04-16, 01:56:04,VALID,1002.81,VALID,0,VALID,86.687,VALID,0,VALID,25.8648,VALID,28,VALID,0.574219,
2012-04-16, 01:57:04,VALID,1002.76,VALID,0,VALID,86.8853,VALID,0,VALID,25.8259,VALID,18,VALID,0.851172,
2012-04-16, 01:58:04,VALID,1002.76,VALID,0,VALID,87.2286,VALID,0,VALID,25.7674,VALID,18,VALID,1.04766,
2012-04-16, 01:59:04,VALID,1002.74,VALID,0,VALID,87.5567,VALID,0,VALID,25.7285,VALID,27,VALID,0.676562,
2012-04-16, 02:00:04,VALID,1002.71,VALID,0,VALID,87.6253,VALID,0,VALID,25.67,VALID,21,VALID,1.05469,
2012-04-16, 02:01:04,VALID,1002.71,VALID,0,VALID,87.7932,VALID,0,VALID,25.67,VALID,41,VALID,0.761328,
2012-04-16, 02:02:04,VALID,1002.71,VALID,0,VALID,87.9381,VALID,0,VALID,25.6292,VALID,31,VALID,0.579687,
2012-04-16, 02:03:04,VALID,1002.73,VALID,0,VALID,88.0678,VALID,0,VALID,25.6116,VALID,30,VALID,0.421094,
2012-04-16, 02:04:04,VALID,1002.72,VALID,0,VALID,88.3195,VALID,0,VALID,25.6116,VALID,24,VALID,0.611719,
2012-04-16, 02:05:04,VALID,1002.75,VALID,0,VALID,88.3348,VALID,0,VALID,25.6136,VALID,24,VALID,0.221875,
2012-04-16, 02:06:04,VALID,1002.76,VALID,0,VALID,88.5255,VALID,0,VALID,25.5921,VALID,110,VALID,0.320703,
2012-04-16, 02:07:04,VALID,1002.77,VALID,0,VALID,88.6476,VALID,0,VALID,25.5727,VALID,100,VALID,0.525391,
2012-04-16, 02:08:04,VALID,1002.76,VALID,0,VALID,88.7773,VALID,0,VALID,25.5532,VALID,82,VALID,0.401172,
2012-04-16, 02:09:04,VALID,1002.81,VALID,0,VALID,88.8459,VALID,0,VALID,25.5532,VALID,82,VALID,0,
2012-04-16, 02:10:04,VALID,1002.78,VALID,0,VALID,88.8993,VALID,0,VALID,25.5337,VALID,82,VALID,0.00351562,
2012-04-16, 02:11:04,VALID,1002.74,VALID,0,VALID,88.9527,VALID,0,VALID,25.5337,VALID,59,VALID,0.373828,
2012-04-16, 02:12:04,VALID,1002.75,VALID,0,VALID,89.0367,VALID,0,VALID,25.5337,VALID,76,VALID,0.369531,
2012-04-16, 02:13:04,VALID,1002.76,VALID,0,VALID,89.1053,VALID,0,VALID,25.5142,VALID,90,VALID,0.296094,
2012-04-16, 02:14:04,VALID,1002.77,VALID,0,VALID,88.9527,VALID,0,VALID,25.5142,VALID,82,VALID,0.205469,
2012-04-16, 02:15:04,VALID,1002.78,VALID,0,VALID,88.9527,VALID,0,VALID,25.5551,VALID,54,VALID,0.4125,
2012-04-16, 02:16:04,VALID,1002.8,VALID,0,VALID,88.7925,VALID,0,VALID,25.5532,VALID,25,VALID,0.472656,
2012-04-16, 02:17:04,VALID,1002.78,VALID,0,VALID,88.5789,VALID,0,VALID,25.5941,VALID,17,VALID,0.444531,
2012-04-16, 02:18:04,VALID,1002.76,VALID,0,VALID,88.5103,VALID,0,VALID,25.633,VALID,44,VALID,0.249609,
2012-04-16, 02:19:04,VALID,1002.73,VALID,0,VALID,88.3577,VALID,0,VALID,25.6116,VALID,44,VALID,0.462891,
2012-04-16, 02:20:04,VALID,1002.74,VALID,0,VALID,88.3195,VALID,0,VALID,25.6116,VALID,44,VALID,0.151953,
2012-04-16, 02:21:04,VALID,1002.73,VALID,0,VALID,88.3119,VALID,0,VALID,25.5921,VALID,44,VALID,0.310156,
2012-04-16, 02:22:04,VALID,1002.7,VALID,0,VALID,88.2204,VALID,0,VALID,25.5921,VALID,25,VALID,0.747266,
2012-04-16, 02:23:04,VALID,1002.7,VALID,0,VALID,88.228,VALID,0,VALID,25.6136,VALID,23,VALID,0.707422,
2012-04-16, 02:24:04,VALID,1002.69,VALID,0,VALID,88.1441,VALID,0.0815089,VALID,25.5707,VALID,19,VALID,0.952734,
2012-04-16, 02:25:04,VALID,1002.67,VALID,0,VALID,87.9152,VALID,0.0815089,VALID,25.6292,VALID,23,VALID,1.07031,
2012-04-16, 02:26:04,VALID,1002.67,VALID,0,VALID,87.8084,VALID,0.0815089,VALID,25.6292,VALID,29,VALID,0.898047,
2012-04-16, 02:27:04,VALID,1002.63,VALID,0,VALID,87.7855,VALID,0.0815089,VALID,25.6486,VALID,4,VALID,0.817969,
2012-04-16, 02:28:04,VALID,1002.63,VALID,0,VALID,87.6482,VALID,0,VALID,25.67,VALID,22,VALID,1.19297,
2012-04-16, 02:29:04,VALID,1002.61,VALID,0,VALID,87.6863,VALID,0,VALID,25.67,VALID,39,VALID,0.479297,
2012-04-16, 02:30:04,VALID,1002.63,VALID,0,VALID,87.6787,VALID,0.0815089,VALID,25.6681,VALID,34,VALID,0.772656,
2012-04-16, 02:31:04,VALID,1002.64,VALID,0,VALID,87.7245,VALID,0,VALID,25.6486,VALID,31,VALID,0.349219,
2012-04-16, 02:32:04,VALID,1002.65,VALID,0,VALID,87.8618,VALID,0,VALID,25.6292,VALID,80,VALID,0.712891,
2012-04-16, 02:33:04,VALID,1002.68,VALID,0,VALID,87.9228,VALID,0.0815089,VALID,25.5883,VALID,77,VALID,0.949219,
2012-04-16, 02:34:04,VALID,1002.68,VALID,0,VALID,88.0983,VALID,0.0815089,VALID,25.5493,VALID,105,VALID,0.924609,
2012-04-16, 02:35:04,VALID,1002.74,VALID,0,VALID,88.2433,VALID,0,VALID,25.5707,VALID,76,VALID,0.514063,
2012-04-16, 02:36:04,VALID,1002.75,VALID,0,VALID,88.2661,VALID,0.0815089,VALID,25.5318,VALID,78,VALID,0.282031,
2012-04-16, 02:37:04,VALID,1002.75,VALID,0,VALID,88.1975,VALID,0,VALID,25.5318,VALID,48,VALID,0.280469,
2012-04-16, 02:38:04,VALID,1002.78,VALID,0,VALID,88.2127,VALID,0.0815089,VALID,25.5142,VALID,58,VALID,0.232812,
2012-04-16, 02:39:04,VALID,1002.79,VALID,0,VALID,88.1365,VALID,0,VALID,25.5162,VALID,76,VALID,0.0605469,
2012-04-16, 02:40:04,VALID,1002.81,VALID,0,VALID,88.0068,VALID,0,VALID,25.4967,VALID,27,VALID,0.780859,
2012-04-16, 02:41:04,VALID,1002.76,VALID,0,VALID,87.6863,VALID,0,VALID,25.4558,VALID,20,VALID,0.800781,
2012-04-16, 02:42:04,VALID,1002.75,VALID,0,VALID,87.4041,VALID,0,VALID,25.4753,VALID,89,VALID,0.792969,
2012-04-16, 02:43:04,VALID,1002.72,VALID,0,VALID,87.3354,VALID,0,VALID,25.4753,VALID,51,VALID,0.555469,
2012-04-16, 02:44:04,VALID,1002.73,VALID,0,VALID,87.1676,VALID,0,VALID,25.4753,VALID,61,VALID,0.422656,
2012-04-16, 02:45:04,VALID,1002.68,VALID,0,VALID,86.9235,VALID,0,VALID,25.4753,VALID,17,VALID,1.50508,
2012-04-16, 02:46:04,VALID,1002.67,VALID,0,VALID,86.9311,VALID,0,VALID,25.5142,VALID,49,VALID,0.377734,
2012-04-16, 02:47:04,VALID,1002.68,VALID,0,VALID,86.9616,VALID,0,VALID,25.5142,VALID,49,VALID,0.009375,
2012-04-16, 02:48:04,VALID,1002.66,VALID,0,VALID,86.9387,VALID,0,VALID,25.5142,VALID,30,VALID,0.783203,
2012-04-16, 02:49:04,VALID,1002.64,VALID,0,VALID,86.8701,VALID,0,VALID,25.5142,VALID,44,VALID,0.671875,
2012-04-16, 02:50:04,VALID,1002.61,VALID,0,VALID,86.9616,VALID,0,VALID,25.5142,VALID,42,VALID,0.444922,
2012-04-16, 02:51:04,VALID,1002.59,VALID,0,VALID,86.8929,VALID,0,VALID,25.5142,VALID,22,VALID,0.533984,
2012-04-16, 02:52:04,VALID,1002.55,VALID,0,VALID,86.954,VALID,0,VALID,25.5337,VALID,26,VALID,0.320703,
2012-04-16, 02:53:04,VALID,1002.57,VALID,0,VALID,86.954,VALID,0,VALID,25.5337,VALID,26,VALID,0.282422,
2012-04-16, 02:54:04,VALID,1002.54,VALID,0,VALID,87.1523,VALID,0,VALID,25.4928,VALID,40,VALID,0.554688,
2012-04-16, 02:55:04,VALID,1002.51,VALID,0,VALID,87.343,VALID,0,VALID,25.4734,VALID,42,VALID,0.309766,
2012-04-16, 02:56:04,VALID,1002.48,VALID,0,VALID,87.549,VALID,0,VALID,25.4344,VALID,42,VALID,0,
2012-04-16, 02:57:04,VALID,1002.48,VALID,0,VALID,87.816,VALID,0,VALID,25.4344,VALID,25,VALID,0.643359,
2012-04-16, 02:58:04,VALID,1002.41,VALID,0,VALID,88.0144,VALID,0,VALID,25.4149,VALID,20,VALID,0.517187,
2012-04-16, 02:59:04,VALID,1002.43,VALID,0,VALID,88.0144,VALID,0,VALID,25.4344,VALID,20,VALID,0.180078,
2012-04-16, 03:00:04,VALID,1002.43,VALID,0,VALID,88.0831,VALID,0.0815089,VALID,25.3955,VALID,59,VALID,0.473047,
2012-04-16, 03:01:04,VALID,1002.4,VALID,0,VALID,88.1288,VALID,0,VALID,25.376,VALID,58,VALID,0,
2012-04-16, 03:02:04,VALID,1002.4,VALID,0,VALID,88.289,VALID,0,VALID,25.3565,VALID,58,VALID,0.257031,
2012-04-16, 03:03:04,VALID,1002.39,VALID,0,VALID,88.3882,VALID,0,VALID,25.3779,VALID,57,VALID,0.46875,
2012-04-16, 03:04:04,VALID,1002.42,VALID,0,VALID,88.2967,VALID,0,VALID,25.376,VALID,45,VALID,0.367578,
2012-04-16, 03:05:04,VALID,1002.42,VALID,0,VALID,88.1975,VALID,0,VALID,25.3974,VALID,45,VALID,0,
2012-04-16, 03:06:04,VALID,1002.45,VALID,0,VALID,88.1899,VALID,0,VALID,25.3955,VALID,78,VALID,0.630469,
2012-04-16, 03:07:04,VALID,1002.5,VALID,0,VALID,88.1441,VALID,0,VALID,25.3955,VALID,90,VALID,0.569531,
2012-04-16, 03:08:04,VALID,1002.52,VALID,0,VALID,88.3806,VALID,0,VALID,25.3955,VALID,90,VALID,0.425391,
2012-04-16, 03:09:04,VALID,1002.57,VALID,0,VALID,88.3577,VALID,0,VALID,25.3974,VALID,90,VALID,0.469141,
2012-04-16, 03:10:04,VALID,1002.58,VALID,0,VALID,88.5103,VALID,0,VALID,25.3565,VALID,90,VALID,0.260938,
2012-04-16, 03:11:04,VALID,1002.59,VALID,0,VALID,88.6705,VALID,0,VALID,25.3584,VALID,90,VALID,0.421875,
2012-04-16, 03:12:04,VALID,1002.62,VALID,0,VALID,88.8231,VALID,0,VALID,25.339,VALID,103,VALID,0.888281,
2012-04-16, 03:13:04,VALID,1002.62,VALID,0,VALID,89.0595,VALID,0,VALID,25.339,VALID,109,VALID,1.00937,
2012-04-16, 03:14:04,VALID,1002.68,VALID,0,VALID,88.8688,VALID,0,VALID,25.2786,VALID,109,VALID,1.06406,
2012-04-16, 03:15:04,VALID,1002.64,VALID,0,VALID,89.1206,VALID,0,VALID,25.2416,VALID,108,VALID,0.642578,
2012-04-16, 03:16:04,VALID,1002.63,VALID,0,VALID,89.38,VALID,0,VALID,25.1813,VALID,120,VALID,0.605859,
2012-04-16, 03:17:04,VALID,1002.63,VALID,0,VALID,89.5249,VALID,0,VALID,25.1637,VALID,111,VALID,0.438672,
2012-04-16, 03:18:04,VALID,1002.64,VALID,0,VALID,89.6088,VALID,0,VALID,25.1442,VALID,111,VALID,0.522266,
2012-04-16, 03:19:04,VALID,1002.66,VALID,0,VALID,89.7843,VALID,0,VALID,25.1423,VALID,108,VALID,0.417188,
2012-04-16, 03:20:04,VALID,1002.65,VALID,0,VALID,89.7156,VALID,0,VALID,25.1637,VALID,108,VALID,0.329688,
2012-04-16, 03:21:04,VALID,1002.64,VALID,0,VALID,89.9292,VALID,0,VALID,25.1442,VALID,108,VALID,0.0945313,
2012-04-16, 03:22:04,VALID,1002.64,VALID,0,VALID,89.7385,VALID,0,VALID,25.1618,VALID,108,VALID,0.528906,
2012-04-16, 03:23:04,VALID,1002.68,VALID,0,VALID,89.9292,VALID,0,VALID,25.1832,VALID,106,VALID,0.587891,
2012-04-16, 03:24:04,VALID,1002.67,VALID,0,VALID,89.8987,VALID,0,VALID,25.1423,VALID,104,VALID,0.330078,
2012-04-16, 03:25:04,VALID,1002.63,VALID,0,VALID,89.9064,VALID,0,VALID,25.1229,VALID,105,VALID,0.487891,
2012-04-16, 03:26:04,VALID,1002.59,VALID,0,VALID,89.8606,VALID,0,VALID,25.1423,VALID,104,VALID,0.666797,
2012-04-16, 03:27:04,VALID,1002.62,VALID,0,VALID,89.8682,VALID,0,VALID,25.1618,VALID,103,VALID,0.142969,
2012-04-16, 03:28:04,VALID,1002.6,VALID,0,VALID,89.7538,VALID,0,VALID,25.1832,VALID,103,VALID,0,
2012-04-16, 03:29:04,VALID,1002.58,VALID,0,VALID,89.708,VALID,0,VALID,25.1832,VALID,103,VALID,0,
2012-04-16, 03:30:04,VALID,1002.54,VALID,0,VALID,89.6317,VALID,0,VALID,25.1813,VALID,103,VALID,0,
2012-04-16, 03:31:04,VALID,1002.57,VALID,0,VALID,89.6851,VALID,0,VALID,25.1813,VALID,103,VALID,0,
2012-04-16, 03:32:04,VALID,1002.58,VALID,0,VALID,89.7156,VALID,0,VALID,25.2027,VALID,103,VALID,0,
2012-04-16, 03:33:04,VALID,1002.57,VALID,0,VALID,89.6622,VALID,0,VALID,25.1813,VALID,103,VALID,0,
2012-04-16, 03:34:04,VALID,1002.58,VALID,0,VALID,89.5173,VALID,0,VALID,25.2221,VALID,103,VALID,0,
2012-04-16, 03:35:04,VALID,1002.58,VALID,0,VALID,89.5859,VALID,0,VALID,25.2027,VALID,103,VALID,0,
2012-04-16, 03:36:04,VALID,1002.6,VALID,0,VALID,89.9292,VALID,0,VALID,25.2027,VALID,103,VALID,0,
2012-04-16, 03:37:04,VALID,1002.59,VALID,0,VALID,90.2573,VALID,0,VALID,25.1813,VALID,108,VALID,0,
2012-04-16, 03:38:04,VALID,1002.61,VALID,0,VALID,90.2802,VALID,0,VALID,25.1637,VALID,120,VALID,0,
2012-04-16, 03:39:04,VALID,1002.57,VALID,0,VALID,90.3412,VALID,0,VALID,25.1442,VALID,120,VALID,0.614453,
2012-04-16, 03:40:04,VALID,1002.58,VALID,0,VALID,90.1963,VALID,0.0815089,VALID,25.1637,VALID,120,VALID,0.621875,
2012-04-16, 03:41:04,VALID,1002.55,VALID,0,VALID,90.1963,VALID,0,VALID,25.1618,VALID,110,VALID,0.337109,
2012-04-16, 03:42:04,VALID,1002.56,VALID,0,VALID,90.0742,VALID,0,VALID,25.2416,VALID,76,VALID,0.375781,
2012-04-16, 03:43:04,VALID,1002.56,VALID,0,VALID,89.8148,VALID,0,VALID,25.3,VALID,80,VALID,0.491016,
2012-04-16, 03:44:04,VALID,1002.54,VALID,0,VALID,89.6851,VALID,0,VALID,25.3176,VALID,80,VALID,0.301562,
2012-04-16, 03:45:04,VALID,1002.54,VALID,0,VALID,89.5554,VALID,0,VALID,25.3565,VALID,125,VALID,0.800781,